Tracking 29487 objects as of 11-Sep-2024
HD Live streaming from Space Station
objects crossing your sky now

INSAT 3B

Track INSAT 3B now!
INSAT 3B is classified as:


NORAD ID: 26108
Int'l Code: 2000-016B
Perigee: 35,934.9 km
Apogee: 35,994.6 km
Inclination: 9.5 °
Period: 1,444.8 minutes
Semi major axis: 42335 km
RCS: 5.0119 m2 (large)
Launch date: March 21, 2000
Source: India (IND)
Launch site: FRENCH GUIANA (FRGUI)

Voice, data and fax transmissions.
Your satellite tracking list
Your tracking list is empty




NASA's NSSDC Master Catalog

Two Line Element Set (TLE):
1 26108U 00016B   24255.61103875 -.00000047  00000-0  00000-0 0  9995
2 26108   9.5185  50.9830 0007051 207.6121 135.0541  0.99664792 45015
Source of the keplerian elements: AFSPC